When you browse on this site, cookies collect data to enhance your experience and personalize the content and advertising you see.
Visit our Privacy Policy to learn more. By continuing to use the site, you agree to this use of cookies and data.
  • In Hungary
  • List of Countries
  • For 7 days
  • Water Temperature
  • Satellite Maps
  • Weather Map
  • News
  • Weather Widgets
  • user-avatar
    Login

    Hourly Weather Addi-Ugri

    Today, 23 January, Wednesday

    Time Temperature Precipitation Wind Pressure Humidity
    00:00 +20°C° 0 mm 1 mps 601 mmHg 54%
    01:00 +19°C° 0 mm 1 mps 600 mmHg 57%
    02:00 +18°C° 0 mm 1 mps 600 mmHg 61%
    03:00 +18°C° 0 mm 1 mps 599 mmHg 65%
    04:00 +16°C° 0 mm 1 mps 599 mmHg 67%
    05:00 +16°C° 0 mm 1 mps 599 mmHg 69%
    06:00 +16°C° 0 mm 1 mps 599 mmHg 72%
    07:00 +18°C° 0 mm 1 mps 600 mmHg 65%
    08:00 +19°C° 0 mm 1 mps 601 mmHg 58%
    09:00 +21°C° 0 mm 1 mps 601 mmHg 48%
    10:00 +23°C° 0 mm 1 mps 602 mmHg 40%
    11:00 +24°C° 0 mm 1 mps 603 mmHg 31%
    12:00 +26°C° 0 mm 1 mps 603 mmHg 22%
    13:00 +27°C° 0 mm 1 mps 603 mmHg 21%
    14:00 +27°C° 0 mm 2 mps 603 mmHg 19%
    15:00 +28°C° 0 mm 2 mps 603 mmHg 18%
    16:00 +28°C° 0 mm 3 mps 602 mmHg 19%
    17:00 +27°C° 0 mm 3 mps 602 mmHg 20%
    18:00 +26°C° 0 mm 3 mps 602 mmHg 21%
    19:00 +25°C° 0 mm 3 mps 602 mmHg 27%
    20:00 +24°C° 0 mm 2 mps 602 mmHg 32%
    21:00 +21°C° 0 mm 2 mps 602 mmHg 38%
    22:00 +21°C° 0 mm 2 mps 602 mmHg 43%
    23:00 +20°C° 0 mm 2 mps 601 mmHg 47%

    Tomorrow, 24 January, Thursday

    Time Temperature Precipitation Wind Pressure Humidity
    00:00 +20°C° 0 mm 1 mps 601 mmHg 52%
    01:00 +20°C° 0 mm 1 mps 601 mmHg 54%
    02:00 +19°C° 0 mm 1 mps 601 mmHg 56%
    03:00 +19°C° 0 mm 1 mps 600 mmHg 58%
    04:00 +18°C° 0 mm 1 mps 600 mmHg 59%
    05:00 +18°C° 0 mm 1 mps 600 mmHg 59%
    06:00 +15°C° 0 mm 0 mps 600 mmHg 60%
    07:00 +17°C° 0 mm 0 mps 601 mmHg 52%
    08:00 +20°C° 0 mm 1 mps 602 mmHg 45%
    09:00 +22°C° 0 mm 1 mps 603 mmHg 37%
    10:00 +23°C° 0 mm 1 mps 603 mmHg 32%
    11:00 +25°C° 0 mm 1 mps 604 mmHg 26%
    12:00 +26°C° 0 mm 1 mps 604 mmHg 20%
    13:00 +27°C° 0 mm 2 mps 604 mmHg 19%
    14:00 +28°C° 0 mm 2 mps 604 mmHg 17%
    15:00 +28°C° 0 mm 3 mps 604 mmHg 16%
    16:00 +28°C° 0 mm 3 mps 603 mmHg 18%
    17:00 +27°C° 0 mm 3 mps 603 mmHg 19%
    18:00 +26°C° 0 mm 3 mps 603 mmHg 21%
    19:00 +25°C° 0 mm 3 mps 603 mmHg 27%
    20:00 +24°C° 0 mm 3 mps 603 mmHg 34%
    21:00 +21°C° 0 mm 2 mps 603 mmHg 41%
    22:00 +21°C° 0 mm 2 mps 602 mmHg 45%
    23:00 +20°C° 0 mm 2 mps 602 mmHg 48%

    Day after tomorrow, 25 January, Friday

    Time Temperature Precipitation Wind Pressure Humidity
    00:00 +20°C° 0 mm 1 mps 602 mmHg 52%
    01:00 +20°C° 0 mm 1 mps 601 mmHg 54%
    02:00 +19°C° 0 mm 1 mps 601 mmHg 55%
    03:00 +19°C° 0 mm 1 mps 601 mmHg 56%
    04:00 +19°C° 0 mm 1 mps 600 mmHg 57%
    05:00 +18°C° 0 mm 1 mps 600 mmHg 58%
    06:00 +18°C° 0 mm 1 mps 600 mmHg 59%
    07:00 +19°C° 0 mm 1 mps 601 mmHg 54%
    08:00 +20°C° 0 mm 1 mps 602 mmHg 49%
    09:00 +21°C° 0 mm 2 mps 603 mmHg 44%
    10:00 +23°C° 0 mm 2 mps 604 mmHg 39%
    11:00 +25°C° 0 mm 2 mps 604 mmHg 34%
    12:00 +26°C° 0 mm 2 mps 604 mmHg 28%
    13:00 +27°C° 0 mm 1 mps 604 mmHg 26%
    14:00 +28°C° 0 mm 1 mps 603 mmHg 24%
    15:00 +28°C° 0 mm 1 mps 603 mmHg 22%
    16:00 +28°C° 0 mm 2 mps 603 mmHg 24%
    17:00 +27°C° 0 mm 2 mps 603 mmHg 26%
    18:00 +27°C° 0 mm 3 mps 602 mmHg 27%
    19:00 +25°C° 0 mm 3 mps 602 mmHg 34%
    20:00 +24°C° 0 mm 2 mps 602 mmHg 40%
    21:00 +23°C° 0 mm 2 mps 602 mmHg 46%
    22:00 +21°C° 0 mm 2 mps 602 mmHg 50%
    23:00 +21°C° 0 mm 2 mps 602 mmHg 53%

    26 January, Saturday

    Time Temperature Precipitation Wind Pressure Humidity
    00:00 +20°C° 0 mm 2 mps 602 mmHg 57%
    01:00 +19°C° 0 mm 2 mps 601 mmHg 60%
    02:00 +19°C° 0 mm 2 mps 601 mmHg 62%
    03:00 +18°C° 0 mm 2 mps 600 mmHg 65%
    04:00 +18°C° 0 mm 2 mps 600 mmHg 65%
    05:00 +18°C° 0 mm 2 mps 600 mmHg 66%
    06:00 +17°C° 0 mm 2 mps 600 mmHg 67%
    07:00 +18°C° 0 mm 2 mps 601 mmHg 62%
    08:00 +19°C° 0 mm 2 mps 602 mmHg 56%
    09:00 +20°C° 0 mm 2 mps 603 mmHg 51%
    10:00 +23°C° 0 mm 2 mps 603 mmHg 44%
    11:00 +25°C° 0 mm 2 mps 603 mmHg 37%
    12:00 +27°C° 0 mm 2 mps 604 mmHg 30%
    13:00 +27°C° 0 mm 2 mps 603 mmHg 27%
    14:00 +28°C° 0 mm 2 mps 603 mmHg 24%
    15:00 +29°C° 0 mm 2 mps 602 mmHg 22%
    16:00 +28°C° 0 mm 2 mps 602 mmHg 23%
    17:00 +28°C° 0 mm 3 mps 602 mmHg 23%
    18:00 +27°C° 0 mm 3 mps 602 mmHg 24%
    19:00 +26°C° 0 mm 3 mps 602 mmHg 31%
    20:00 +24°C° 0 mm 3 mps 602 mmHg 38%
    21:00 +22°C° 0 mm 3 mps 602 mmHg 44%
    22:00 +21°C° 0 mm 3 mps 601 mmHg 47%
    23:00 +21°C° 0 mm 2 mps 601 mmHg 51%

    27 January, Sunday

    Time Temperature Precipitation Wind Pressure Humidity
    00:00 +20°C° 0 mm 2 mps 601 mmHg 54%
    01:00 +20°C° 0 mm 2 mps 601 mmHg 54%
    02:00 +20°C° 0 mm 1 mps 600 mmHg 55%
    03:00 +19°C° 0 mm 1 mps 600 mmHg 55%
    04:00 +19°C° 0 mm 1 mps 600 mmHg 55%
    05:00 +19°C° 0 mm 1 mps 600 mmHg 55%
    06:00 +18°C° 0 mm 1 mps 600 mmHg 55%
    07:00 +20°C° 0 mm 1 mps 601 mmHg 50%
    08:00 +21°C° 0 mm 1 mps 602 mmHg 44%
    09:00 +21°C° 0 mm 2 mps 602 mmHg 38%
    10:00 +24°C° 0 mm 2 mps 603 mmHg 33%
    11:00 +26°C° 0 mm 2 mps 603 mmHg 27%
    12:00 +27°C° 0 mm 2 mps 603 mmHg 21%
    13:00 +28°C° 0 mm 2 mps 603 mmHg 20%
    14:00 +29°C° 0 mm 2 mps 602 mmHg 18%
    15:00 +29°C° 0 mm 2 mps 602 mmHg 16%
    16:00 +29°C° 0 mm 3 mps 602 mmHg 19%
    17:00 +28°C° 0 mm 3 mps 602 mmHg 22%
    18:00 +27°C° 0 mm 3 mps 602 mmHg 25%
    19:00 +26°C° 0 mm 3 mps 601 mmHg 34%
    20:00 +24°C° 0 mm 3 mps 601 mmHg 43%
    21:00 +21°C° 0 mm 3 mps 601 mmHg 53%
    22:00 +21°C° 0 mm 3 mps 601 mmHg 55%
    23:00 +20°C° 0 mm 2 mps 601 mmHg 57%

    28 January, Monday

    Time Temperature Precipitation Wind Pressure Humidity
    00:00 +20°C° 0 mm 2 mps 601 mmHg 60%
    01:00 +20°C° 0 mm 1 mps 600 mmHg 59%
    02:00 +20°C° 0 mm 1 mps 600 mmHg 59%
    03:00 +19°C° 0 mm 1 mps 599 mmHg 59%
    04:00 +19°C° 0 mm 1 mps 599 mmHg 58%
    05:00 +18°C° 0 mm 1 mps 599 mmHg 58%
    06:00 +18°C° 0 mm 1 mps 599 mmHg 57%
    07:00 +19°C° 0 mm 1 mps 600 mmHg 50%
    08:00 +21°C° 0 mm 1 mps 601 mmHg 43%
    09:00 +22°C° 0 mm 1 mps 602 mmHg 36%
    10:00 +24°C° 0 mm 1 mps 603 mmHg 30%
    11:00 +26°C° 0 mm 1 mps 603 mmHg 24%
    12:00 +28°C° 0 mm 1 mps 604 mmHg 18%
    13:00 +28°C° 0 mm 1 mps 603 mmHg 17%
    14:00 +29°C° 0 mm 1 mps 603 mmHg 16%
    15:00 +30°C° 0 mm 2 mps 603 mmHg 15%
    16:00 +29°C° 0 mm 2 mps 602 mmHg 18%
    17:00 +28°C° 0 mm 3 mps 602 mmHg 20%
    18:00 +28°C° 0 mm 4 mps 602 mmHg 23%
    19:00 +26°C° 0 mm 3 mps 602 mmHg 30%
    20:00 +25°C° 0 mm 3 mps 602 mmHg 37%
    21:00 +24°C° 0 mm 3 mps 602 mmHg 44%
    22:00 +22°C° 0 mm 3 mps 602 mmHg 45%
    23:00 +21°C° 0 mm 2 mps 601 mmHg 47%
    Show more